• In India
  • List of Countries
  • For 7 days
  • Water Temperature
  • Satellite Maps
  • Weather Map
  • Weather Widgets
  • user-avatar
    Login

    Hourly Weather Graz

    Today, 18 January, Thursday

    Time Temperature Precipitation Wind Pressure Humidity
    00:00 -2°C° 0.2 mm 3 mps 718 mmHg 78%
    01:00 -2°C° 0 mm 2 mps 719 mmHg 79%
    02:00 -2°C° 0.2 mm 2 mps 719 mmHg 79%
    03:00 -2°C° 0.2 mm 2 mps 719 mmHg 79%
    04:00 -1°C° 0.2 mm 2 mps 720 mmHg 79%
    05:00 -2°C° 0.1 mm 2 mps 720 mmHg 79%
    06:00 -2°C° 0.1 mm 2 mps 720 mmHg 80%
    07:00 0°C° 0 mm 1 mps 720 mmHg 81%
    08:00 +1°C° 0 mm 1 mps 720 mmHg 77%
    09:00 +2°C° 0 mm 1 mps 720 mmHg 73%
    10:00 +3°C° 0 mm 1 mps 720 mmHg 69%
    11:00 +3°C° 0 mm 2 mps 719 mmHg 66%
    12:00 +4°C° 0 mm 2 mps 719 mmHg 63%
    13:00 +4°C° 0 mm 2 mps 718 mmHg 59%
    14:00 +4°C° 0 mm 2 mps 717 mmHg 62%
    15:00 +4°C° 0 mm 2 mps 717 mmHg 64%
    16:00 +3°C° 0 mm 2 mps 716 mmHg 67%
    17:00 +2°C° 0 mm 2 mps 716 mmHg 69%
    18:00 +1°C° 0 mm 2 mps 715 mmHg 72%
    19:00 -1°C° 0 mm 3 mps 715 mmHg 75%
    20:00 -1°C° 0.1 mm 2 mps 715 mmHg 76%
    21:00 +1°C° 0.1 mm 2 mps 715 mmHg 77%
    22:00 +1°C° 0.1 mm 2 mps 715 mmHg 78%
    23:00 +1°C° 0.2 mm 2 mps 715 mmHg 80%

    Tomorrow, 19 January, Friday

    Time Temperature Precipitation Wind Pressure Humidity
    00:00 +1°C° 0.2 mm 2 mps 716 mmHg 82%
    01:00 +3°C° 0.2 mm 1 mps 716 mmHg 83%
    02:00 +2°C° 0.1 mm 1 mps 716 mmHg 85%
    03:00 +2°C° 0.1 mm 1 mps 716 mmHg 86%
    04:00 +2°C° 0.1 mm 1 mps 715 mmHg 87%
    05:00 +2°C° 0.2 mm 1 mps 716 mmHg 88%
    06:00 +3°C° 0.2 mm 1 mps 716 mmHg 88%
    07:00 +3°C° 0.2 mm 1 mps 716 mmHg 89%
    08:00 +3°C° 0.3 mm 1 mps 716 mmHg 88%
    09:00 +4°C° 0.3 mm 1 mps 717 mmHg 88%
    10:00 +4°C° 0.3 mm 1 mps 717 mmHg 87%
    11:00 +5°C° 0.4 mm 1 mps 717 mmHg 87%
    12:00 +5°C° 0.4 mm 1 mps 717 mmHg 86%
    13:00 +5°C° 0.4 mm 1 mps 718 mmHg 86%
    14:00 +5°C° 0.6 mm 1 mps 718 mmHg 87%
    15:00 +5°C° 0.6 mm 1 mps 718 mmHg 87%
    16:00 +4°C° 0.6 mm 1 mps 719 mmHg 88%
    17:00 +3°C° 0.2 mm 1 mps 719 mmHg 89%
    18:00 +3°C° 0.2 mm 1 mps 720 mmHg 90%
    19:00 +2°C° 0.2 mm 1 mps 720 mmHg 91%
    20:00 +2°C° 0.2 mm 1 mps 720 mmHg 90%
    21:00 +2°C° 0.2 mm 1 mps 721 mmHg 90%
    22:00 +2°C° 0.2 mm 1 mps 721 mmHg 90%
    23:00 +2°C° 0.3 mm 1 mps 721 mmHg 91%

    Day after tomorrow, 20 January, Saturday

    Time Temperature Precipitation Wind Pressure Humidity
    00:00 +1°C° 0.3 mm 1 mps 722 mmHg 91%
    01:00 +1°C° 0.3 mm 1 mps 722 mmHg 92%
    02:00 +1°C° 0.1 mm 1 mps 722 mmHg 92%
    03:00 0°C° 0.1 mm 1 mps 721 mmHg 92%
    04:00 0°C° 0.1 mm 1 mps 721 mmHg 92%
    05:00 0°C° 0 mm 1 mps 721 mmHg 92%
    06:00 -1°C° 0 mm 1 mps 721 mmHg 91%
    07:00 -1°C° 0 mm 1 mps 721 mmHg 91%
    08:00 0°C° 0.1 mm 1 mps 721 mmHg 88%
    09:00 +1°C° 0.1 mm 1 mps 721 mmHg 85%
    10:00 +2°C° 0.1 mm 1 mps 721 mmHg 81%
    11:00 +3°C° 0 mm 1 mps 721 mmHg 78%
    12:00 +4°C° 0 mm 1 mps 720 mmHg 74%
    13:00 +4°C° 0 mm 2 mps 719 mmHg 71%
    14:00 +3°C° 0 mm 2 mps 718 mmHg 75%
    15:00 +3°C° 0 mm 2 mps 718 mmHg 78%
    16:00 +3°C° 0 mm 1 mps 717 mmHg 82%
    17:00 +2°C° 0 mm 1 mps 717 mmHg 85%
    18:00 +2°C° 0 mm 1 mps 716 mmHg 88%
    19:00 +1°C° 0 mm 1 mps 716 mmHg 90%
    20:00 +1°C° 0.1 mm 1 mps 715 mmHg 91%
    21:00 +1°C° 0.1 mm 1 mps 715 mmHg 91%
    22:00 +1°C° 0.1 mm 1 mps 714 mmHg 91%
    23:00 +1°C° 0.1 mm 1 mps 714 mmHg 91%

    21 January, Sunday

    Time Temperature Precipitation Wind Pressure Humidity
    00:00 +1°C° 0.1 mm 1 mps 714 mmHg 91%
    01:00 +1°C° 0.1 mm 1 mps 714 mmHg 91%
    02:00 -1°C° 0.2 mm 2 mps 714 mmHg 90%
    03:00 -1°C° 0.2 mm 2 mps 715 mmHg 88%
    04:00 -1°C° 0.2 mm 3 mps 716 mmHg 86%
    05:00 -1°C° 0.1 mm 3 mps 717 mmHg 85%
    06:00 -2°C° 0.1 mm 3 mps 718 mmHg 84%
    07:00 -2°C° 0.1 mm 3 mps 719 mmHg 82%
    08:00 -1°C° 0 mm 3 mps 720 mmHg 78%
    09:00 -2°C° 0 mm 4 mps 721 mmHg 73%
    10:00 -1°C° 0 mm 5 mps 722 mmHg 69%
    11:00 -1°C° 0 mm 5 mps 722 mmHg 66%
    12:00 0°C° 0 mm 5 mps 723 mmHg 64%
    13:00 0°C° 0 mm 5 mps 723 mmHg 61%
    14:00 0°C° 0 mm 4 mps 723 mmHg 64%
    15:00 -1°C° 0 mm 4 mps 724 mmHg 68%
    16:00 -1°C° 0 mm 3 mps 724 mmHg 71%
    17:00 -2°C° 0 mm 2 mps 725 mmHg 74%
    18:00 -3°C° 0 mm 2 mps 725 mmHg 78%
    19:00 -4°C° 0 mm 2 mps 726 mmHg 82%
    20:00 -3°C° 0 mm 1 mps 726 mmHg 82%
    21:00 -3°C° 0 mm 1 mps 726 mmHg 82%
    22:00 -3°C° 0 mm 1 mps 727 mmHg 82%
    23:00 -3°C° 0 mm 1 mps 726 mmHg 82%

    22 January, Monday

    Time Temperature Precipitation Wind Pressure Humidity
    00:00 -3°C° 0 mm 1 mps 726 mmHg 81%
    01:00 -3°C° 0 mm 1 mps 726 mmHg 80%
    02:00 -3°C° 0 mm 1 mps 726 mmHg 79%
    03:00 -3°C° 0 mm 1 mps 725 mmHg 78%
    04:00 -3°C° 0 mm 0 mps 725 mmHg 77%
    05:00 -3°C° 0.1 mm 0 mps 725 mmHg 78%
    06:00 -3°C° 0.1 mm 0 mps 725 mmHg 78%
    07:00 -2°C° 0.1 mm 0 mps 725 mmHg 79%
    08:00 -1°C° 0.1 mm 0 mps 726 mmHg 78%
    09:00 0°C° 0.1 mm 0 mps 726 mmHg 76%
    10:00 0°C° 0.1 mm 0 mps 726 mmHg 74%
    11:00 +1°C° 0.1 mm 0 mps 726 mmHg 74%
    12:00 +2°C° 0.1 mm 0 mps 726 mmHg 73%
    13:00 +4°C° 0.1 mm 1 mps 727 mmHg 72%
    14:00 +4°C° 0 mm 1 mps 727 mmHg 75%
    15:00 +4°C° 0 mm 1 mps 727 mmHg 78%
    16:00 +3°C° 0 mm 1 mps 727 mmHg 81%
    17:00 +3°C° 0 mm 1 mps 727 mmHg 82%
    18:00 +1°C° 0 mm 0 mps 727 mmHg 84%
    19:00 0°C° 0 mm 0 mps 728 mmHg 86%
    20:00 0°C° 0 mm 0 mps 728 mmHg 86%
    21:00 +2°C° 0 mm 1 mps 728 mmHg 86%
    22:00 +2°C° 0 mm 1 mps 728 mmHg 85%
    23:00 +2°C° 0 mm 1 mps 728 mmHg 86%

    23 January, Tuesday

    Time Temperature Precipitation Wind Pressure Humidity
    00:00 +2°C° 0 mm 1 mps 728 mmHg 86%
    01:00 +3°C° 0 mm 1 mps 728 mmHg 86%
    02:00 +3°C° 0.2 mm 1 mps 728 mmHg 87%
    03:00 +3°C° 0.2 mm 1 mps 728 mmHg 87%
    04:00 +4°C° 0.2 mm 1 mps 728 mmHg 88%
    05:00 +4°C° 0.4 mm 1 mps 728 mmHg 89%
    06:00 +4°C° 0.4 mm 1 mps 729 mmHg 90%
    07:00 +4°C° 0.4 mm 1 mps 729 mmHg 92%
    08:00 +5°C° 0.1 mm 1 mps 729 mmHg 91%
    09:00 +6°C° 0.1 mm 1 mps 730 mmHg 91%
    10:00 +6°C° 0.1 mm 1 mps 730 mmHg 90%
    11:00 +7°C° 0 mm 1 mps 730 mmHg 89%
    12:00 +8°C° 0 mm 1 mps 730 mmHg 88%
    13:00 +9°C° 0 mm 1 mps 730 mmHg 87%
    14:00 +8°C° 0 mm 1 mps 730 mmHg 89%
    15:00 +8°C° 0 mm 1 mps 730 mmHg 91%
    16:00 +7°C° 0 mm 1 mps 730 mmHg 93%
    17:00 +7°C° 0 mm 1 mps 731 mmHg 93%
    18:00 +6°C° 0 mm 1 mps 731 mmHg 93%
    19:00 +6°C° 0 mm 1 mps 731 mmHg 93%
    20:00 +6°C° 0 mm 1 mps 732 mmHg 92%
    21:00 +6°C° 0 mm 1 mps 732 mmHg 92%
    22:00 +6°C° 0 mm 1 mps 732 mmHg 92%
    23:00 +5°C° 0 mm 1 mps 732 mmHg 91%
    Show more